Marrakech, Morocco

7:30 AM WET on February 06, 2016 (GMT +0000)
Menara

Weather History for GMMX - August, 2015

Change the Weather History Date:

Saturday, August 22, 2015

  Actual Average Record
Temperature  
Mean Temperature 79 °F -  
Max Temperature 92 °F 90 °F - ()
Min Temperature 66 °F 65 °F - ()
Cooling Degree Days 14    
Growing Degree Days 29 (Base 50)    
Moisture  
Dew Point 62 °F    
Average Humidity 61    
Maximum Humidity 94    
Minimum Humidity 24    
Precipitation  
Precipitation 0.00 in 0.01 in - ()
Sea Level Pressure  
Sea Level Pressure 30.06 in    
Wind  
Wind Speed 7 mph ()    
Max Wind Speed 10 mph    
Max Gust Speed -    
Visibility 6.0 miles    
Events      
T = Trace of Precipitation, MM = Missing Value Source: Averaged Metar Reports

Daily Weather History Graph

Daily Weather History Graph

Search for Another Location

Airport or City:

Trip Planner

Search our weather history database for the weather conditions in past years. The results will help you decide how hot, cold, wet, or windy it might be!

Date:

Astronomy

Aug. 22, 2015 Rise Set
Actual Time 7:01 AM WEST 8:08 PM WEST
Civil Twilight 6:36 AM WEST 8:33 PM WEST
Nautical Twilight 6:06 AM WEST 9:03 PM WEST
Astronomical Twilight 5:35 AM WEST 9:34 PM WEST
Moon 1:47 PM WEST (8/22) 12:07 AM WEST (8/22)
Length of Visible Light 13h 57m
Length of Day
13h 06m
Waxing Crescent, 47% of the Moon is Illuminated
Aug 22
Waxing Crescent
Aug 22
First Quarter
Aug 29
Full
Sep 5
Last Quarter
Sep 13
New

Hourly Weather History & Observations

Time (WEST) Temp. Heat Index Dew Point Humidity Pressure Visibility Wind Dir Wind Speed Gust Speed Precip Events Conditions
12:00 AM 75.2 °F - 62.6 °F 65% 30.12 in - SW 8.1 mph - N/A   Clear
12:30 AM 75.2 °F - 62.6 °F 65% 30.09 in 5.6 mi SW 8.1 mph - N/A   Unknown
1:00 AM 74 °F - 62 °F 57% 30.04 in 6 mi WSW 10.4 mph - -  
1:00 AM 73.4 °F - 60.8 °F 65% 30.09 in 5.0 mi WSW 10.4 mph - N/A   Unknown
1:30 AM 73.4 °F - 62.6 °F 69% 30.09 in - WSW 9.2 mph - N/A   Clear
2:00 AM 71.6 °F - 62.6 °F 73% 30.09 in - WSW 9.2 mph - N/A   Clear
2:30 AM 71.6 °F - 62.6 °F 73% 30.09 in - WSW 8.1 mph - N/A   Clear
3:00 AM 71.6 °F - 62.6 °F 73% 30.09 in - SW 8.1 mph - N/A   Clear
3:30 AM 69.8 °F - 62.6 °F 78% 30.06 in 6.2 mi SW 8.1 mph - N/A   Unknown
4:00 AM 70 °F - 62 °F 70% 30.03 in 6 mi SW 6.9 mph - -  
4:00 AM 69.8 °F - 62.6 °F 78% 30.06 in - SW 6.9 mph - N/A   Clear
4:30 AM 69.8 °F - 62.6 °F 78% 30.06 in 5.6 mi SW 8.1 mph - N/A   Unknown
5:00 AM 68.0 °F - 62.6 °F 83% 30.06 in 5.0 mi SW 6.9 mph - N/A   Unknown
5:30 AM 68.0 °F - 62.6 °F 83% 30.06 in 5.0 mi SW 8.1 mph - N/A   Unknown
6:00 AM 68.0 °F - 62.6 °F 83% 30.06 in 5.0 mi SW 9.2 mph - N/A   Unknown
6:30 AM 66.2 °F - 62.6 °F 88% 30.06 in 6.2 mi SW 8.1 mph - N/A   Scattered Clouds
7:00 AM 66 °F - 63 °F 86% 30.04 in 6 mi SW 8.1 mph - -   Partly Cloudy
7:00 AM 66.2 °F - 62.6 °F 88% 30.06 in 6.2 mi SW 8.1 mph - N/A   Scattered Clouds
7:30 AM 66.2 °F - 62.6 °F 88% 30.09 in 5.0 mi SW 9.2 mph - N/A   Scattered Clouds
8:00 AM 66.2 °F - 64.4 °F 94% 30.09 in 6.2 mi SW 9.2 mph - N/A   Scattered Clouds
8:30 AM 66.2 °F - 64.4 °F 94% 30.09 in 6.2 mi SW 10.4 mph - N/A   Scattered Clouds
9:00 AM 68.0 °F - 64.4 °F 88% 30.09 in 6.2 mi SW 10.4 mph - N/A   Scattered Clouds
9:30 AM 69.8 °F - 64.4 °F 83% 30.09 in 6.2 mi WSW 6.9 mph - N/A   Scattered Clouds
10:00 AM 71 °F - 64 °F 73% 30.04 in 6 mi WSW 4.6 mph - -   Scattered Clouds
10:00 AM 71.6 °F - 64.4 °F 78% 30.09 in 6.2 mi Variable 4.6 mph - N/A   Scattered Clouds
10:30 AM 73.4 °F - 64.4 °F 73% 30.09 in 6.2 mi WNW 4.6 mph - N/A   Scattered Clouds
11:00 AM 73.4 °F - 64.4 °F 73% 30.09 in 6.2 mi Variable 4.6 mph - N/A   Scattered Clouds
11:30 AM 75.2 °F - 64.4 °F 69% 30.09 in 6.2 mi NW 4.6 mph - N/A   Partly Cloudy
12:00 PM 77.0 °F - 64.4 °F 65% 30.09 in 6.2 mi WNW 3.5 mph - N/A   Partly Cloudy
12:30 PM 78.8 °F - 64.4 °F 61% 30.09 in 6.2 mi Variable 3.5 mph - N/A   Partly Cloudy
1:00 PM 81 °F - 64 °F 48% 29.99 in 6 mi WSW 3.5 mph - -   Scattered Clouds
1:00 PM 80.6 °F 82.3 °F 64.4 °F 58% 30.06 in 6.2 mi Variable 4.6 mph - N/A   Partly Cloudy
1:30 PM 82.4 °F 83.9 °F 64.4 °F 54% 30.06 in 6.2 mi West 5.8 mph - N/A   Partly Cloudy
2:00 PM 84.2 °F 85.6 °F 64.4 °F 51% 30.06 in 6.2 mi West 6.9 mph - N/A   Partly Cloudy
2:30 PM 84.2 °F 85.6 °F 64.4 °F 51% 30.06 in 6.2 mi NW 4.6 mph - N/A   Partly Cloudy
3:00 PM 86.0 °F 86.6 °F 62.6 °F 45% 30.06 in 6.2 mi West 8.1 mph - N/A   Partly Cloudy
3:30 PM 87.8 °F 88.5 °F 62.6 °F 43% 30.04 in 6.2 mi WNW 6.9 mph - N/A   Partly Cloudy
4:00 PM 89 °F - 62 °F 30% 29.94 in 6 mi WSW 9.2 mph - -   Scattered Clouds
4:00 PM 87.8 °F 88.5 °F 62.6 °F 43% 30.04 in 6.2 mi West 8.1 mph - N/A   Partly Cloudy
4:28 PM 89.6 °F 89.5 °F 60.8 °F 38% 30.04 in 6.2 mi West 10.4 mph - N/A   Partly Cloudy
4:30 PM 89.6 °F 89.5 °F 60.8 °F 38% 30.04 in 6.2 mi West 10.4 mph - N/A   Partly Cloudy
5:00 PM 89.6 °F 88.1 °F 57.2 °F 33% 30.04 in 6.2 mi West 10.4 mph - N/A   Partly Cloudy
5:30 PM 89.6 °F 88.1 °F 57.2 °F 33% 30.04 in 6.2 mi West 9.2 mph - N/A   Partly Cloudy
6:00 PM 89.6 °F 88.1 °F 57.2 °F 33% 30.04 in 6.2 mi West 9.2 mph - N/A   Partly Cloudy
6:30 PM 87.8 °F 86.5 °F 57.2 °F 35% 30.04 in 6.2 mi West 6.9 mph - N/A   Partly Cloudy
7:00 PM 88 °F - 56 °F 24% 29.94 in 6 mi West 9.2 mph - -   Scattered Clouds
7:00 PM 87.8 °F 86.1 °F 55.4 °F 33% 30.04 in 6.2 mi West 10.4 mph - N/A   Partly Cloudy
7:30 PM 87.8 °F 86.1 °F 55.4 °F 33% 30.04 in 6.2 mi West 9.2 mph - N/A   Scattered Clouds
8:00 PM 86.0 °F 84.5 °F 55.4 °F 35% 30.04 in 6.2 mi West 6.9 mph - N/A   Scattered Clouds
8:30 PM 84.2 °F 83.8 °F 59.0 °F 42% 30.04 in 6.2 mi NNW 10.4 mph - N/A   Scattered Clouds
9:00 PM 82.4 °F 82.5 °F 59.0 °F 45% 30.06 in 6.2 mi NNW 10.4 mph - N/A   Scattered Clouds
9:30 PM 80.6 °F 81.1 °F 59.0 °F 48% 30.06 in 6.2 mi NNW 9.2 mph - N/A   Scattered Clouds
10:00 PM 79 °F - 59 °F 40% 30.01 in 6 mi North 6.9 mph - -   Scattered Clouds
10:00 PM 78.8 °F - 59.0 °F 51% 30.09 in 6.2 mi North 5.8 mph - N/A   Scattered Clouds
10:30 PM 77.0 °F - 59.0 °F 54% 30.09 in 6.2 mi NNE 10.4 mph - N/A   Scattered Clouds
11:00 PM 75.2 °F - 60.8 °F 61% 30.09 in 6.2 mi NNE 9.2 mph - N/A   Scattered Clouds
11:30 PM 75.2 °F - 60.8 °F 61% 30.09 in 6.2 mi North 6.9 mph - N/A   Scattered Clouds